STARLINK-11083, 59424

Orbit data source: Space-Track

STARLINK-11083, 59424 is a payload satellite owned by SpaceX/Seattle (US) in LEO that was launched on Sun, 07 Apr 2024 UTC via an FALCON 9 launch vehicle from the Air Force Western Test Range (AFWTR). Payload-class satellites include a variety of spacecraft equipped with specific instruments for various scientific and technological missions. These include communications satellites like Starlink; space stations such as the ISS; scientific satellites like the Hubble; Earth observation satellites from companies like Planet Labs, Umbra, and HawkEye 360; GPS; miniature CubeSats for education and research; and military/defense satellites.

Loading next visibility...
Identifier
59424, 2024-065D
Orbit
LEO
Country
Flag of USUS
Related business
Manufacturer
SpaceX/Seattle
Mission
Operational Commercial Communications
Bus & Motor
STARLINK V2MD, Unknown motor
Mass
960 kg wet, ~910 kg dry
Launch date (UTC)
2024-04-07 (2 years ago)
Launch vehicle
FALCON 9
Launch site
Air Force Western Test Range (AFWTR)
Object type
Payload
Rocket body
Debris
Shape & HBR
Box + 2 Pan, 18.1 m
Radar Cross Section
36.964 m², Large (>1 m²)

Expand to show TLE details & history
Last TLE update: 3 days ago

TLE from 3 days ago
0 STARLINK-11083
1 59424U 24065D   26170.69833292  .00000935  00000-0  12574-4 0  9999
2 59424  53.1595 311.0960 0001017  85.0772 275.0362 15.69717557127493
Epoch: 2026-06-19T16:45Z
TLE epoch observation values (Epoch: 2026-06-19T16:45:35.964Z)
Latitude
-0.00001°
Longitude
151.77257°
Altitude
360.56 km
Speed
7.694 km/s
True Right ascension
20h 44m 23s
True Declination
0° 00' 00"
Sunlit
Object was in full shadow at epoch
Visualization orbit readout
Latitude
Unknown
Longitude
Unknown
Altitude
Unknown
Speed
Unknown
Apparent Right ascension
Unknown
Apparent Declination
Unknown
Sunlit
N/A
Visualization observer readout
Local Sidereal Time
23:08:49
Azimuth
Unknown
Elevation
Unknown
Doppler factor
Unknown
Orbital elements
Apogee altitude
360.651 km
Perigee altitude
359.281 km
Semi-major axis
6,738.103 km
Eccentricity
0.0001
Inclination
53.1595°
RAAN
311.096°
Arg. of periapsis
85.0772°
True anomaly
275.02459°
Mean anomaly
275.0362°
Eccentric anomaly
275.0304°
Mean motion
3.92407 °/min
Orbital period
91.74 mins
BSTAR
0.000012574
Loading maneuver chart data...
Computing Atmospheric mass density...
Loading historical data...
Loading historical data...
Loading historical data...
Loading historical data...
Loading historical data...
Loading historical data...
Loading historical data...

Documentation

Showing up to 5 results
|